NOAA 16 DEB, 41713

Orbit data source: Space-Track

NOAA 16 DEB, 41713 is space debris in SSO originally from a launch on Thu, 21 Sep 2000 UTC launched from the Air Force Western Test Range (AFWTR). Debris objects in space refer to the collection of defunct objects orbiting the Earth. Examples of debris include non-operational satellites, rocket bodies, and fragments generated from explosions, collisions, or faulty payload assembly.

Loading next visibility...
Identifier
41713, 2000-055PT
Orbit
SSO
Country
Flag of USUS
Related business
Manufacturer
Unknown
Mission
Spacecraft
Bus & Motor
Unknown
Mass
Unknown
Launch date (UTC)
2000-09-21 (26 years ago)
Launch vehicle
Unknown
Launch site
Air Force Western Test Range (AFWTR)
Object type
Payload
Rocket body
Debris
Shape & HBR
Unknown shape, 0.1 m
Radar Cross Section
Small (<0.1 m²)

Expand to show TLE details & history
Last TLE update: 1 week ago

TLE from 1 week ago
0 NOAA 16 DEB
1 41713U 00055PT  26119.18204505  .00003515  00000-0  18928-2 0  9994
2 41713  98.8904 101.2276 0092471 265.4772  93.5831 14.11275737507291
Epoch: 2026-04-29T04:22Z
TLE epoch observation values (Epoch: 2026-04-29T04:22:08.692Z)
Latitude
-0.00004°
Longitude
178.54471°
Altitude
862.703 km
Speed
7.419 km/s
True Right ascension
06h 44m 54s
True Declination
0° 00' 00"
Sunlit
Object was in daylight at epoch
Visualization orbit readout
Latitude
Unknown
Longitude
Unknown
Altitude
Unknown
Speed
Unknown
Apparent Right ascension
Unknown
Apparent Declination
Unknown
Sunlit
N/A
Visualization observer readout
Local Sidereal Time
02:48:00
Azimuth
Unknown
Elevation
Unknown
Doppler factor
Unknown
Orbital elements
Apogee altitude
919.048 km
Perigee altitude
785.329 km
Semi-major axis
7,230.325 km
Eccentricity
0.00925
Inclination
98.8904°
RAAN
101.2276°
Arg. of periapsis
265.4772°
True anomaly
94.63984°
Mean anomaly
93.5831°
Eccentric anomaly
94.11156°
Mean motion
3.53026 °/min
Orbital period
101.98 mins
BSTAR
0.0018928
Loading maneuver chart data...
Computing Atmospheric mass density...
Loading historical data...
Loading historical data...
Loading historical data...
Loading historical data...
Loading historical data...
Loading historical data...
Loading historical data...

Documentation

Showing up to 5 results
|